User: anonymous   Login
Location: Unspecified
(0.0000°N, 0.0000°E)
Time: 11:32:14
(UTC+00:00)
Language:

USA 189 - Orbit

View from above orbital plane
View from above orbital plane
View from above satellite
View from above satellite

Ground track
Ground track

The orbit data is extracted from the following two-line orbital elements,

1 29242U 06024C   18249.64079890 0.00000000  00000-0  00000-0 0    01
2 29242   8.4912  40.5546 0002816 182.5900 177.4206  1.04030686    06
Epoch (UTC): 06 September 2018 15:22:45
Eccentricity: 0.0002816
inclination: 8.4912°
perigee height: 34753 km
apogee height: 34776 km
right ascension of ascending node: 40.5546°
argument of perigee: 182.5900°
revolutions per day: 1.04030686
mean anomaly at epoch: 177.4206°
orbit number at epoch: 0

The dashed part of the orbit path shows where the satellite is in the earth's shadow,  

DLR